Time,TemperatureF,DewpointF,PressureIn,WindDirection,WindDirectionDegrees,WindSpeedMPH,WindSpeedGustMPH,Humidity,HourlyPrecipIn,Conditions,Clouds,dailyrainin,SoftwareType,DateUTC
2013-01-12 00:01:00,33.1,17.4,30.30,ESE,119,3.6,3.6,52,0.00,,,0.00,VWS V13.01,2013-01-12 08:01:00,
2013-01-12 00:06:00,33.1,17.4,30.30,ESE,119,3.1,4.0,52,0.00,,,0.00,VWS V13.01,2013-01-12 08:06:00,
2013-01-12 00:11:00,33.1,17.4,30.30,ESE,119,2.7,5.4,52,0.00,,,0.00,VWS V13.01,2013-01-12 08:11:00,
2013-01-12 00:16:00,33.1,16.9,30.30,ESE,119,3.6,4.9,51,0.00,,,0.00,VWS V13.01,2013-01-12 08:16:00,
2013-01-12 00:21:00,33.1,16.9,30.30,ESE,119,2.7,3.6,51,0.00,,,0.00,VWS V13.01,2013-01-12 08:21:00,
2013-01-12 00:26:00,33.1,16.9,30.30,ESE,119,4.9,4.9,51,0.00,,,0.00,VWS V13.01,2013-01-12 08:26:00,
2013-01-12 00:31:00,33.1,16.9,30.30,ESE,119,2.7,3.1,51,0.00,,,0.00,VWS V13.01,2013-01-12 08:31:00,
2013-01-12 00:36:00,33.1,16.9,30.30,ESE,119,3.1,4.9,51,0.00,,,0.00,VWS V13.01,2013-01-12 08:36:00,
2013-01-12 00:41:00,33.1,16.9,30.30,ESE,119,3.6,3.6,51,0.00,,,0.00,VWS V13.01,2013-01-12 08:41:00,
2013-01-12 00:46:00,33.1,16.9,30.30,ESE,119,4.0,4.0,51,0.00,,,0.00,VWS V13.01,2013-01-12 08:46:00,
2013-01-12 00:51:00,33.1,16.9,30.30,ESE,119,3.6,4.0,51,0.00,,,0.00,VWS V13.01,2013-01-12 08:51:00,
2013-01-12 00:56:00,33.1,16.9,30.30,ESE,119,3.6,4.0,51,0.00,,,0.00,VWS V13.01,2013-01-12 08:56:00,
2013-01-12 01:01:00,33.1,16.9,30.30,ESE,119,0.0,3.6,51,0.00,,,0.00,VWS V13.01,2013-01-12 09:01:00,
2013-01-12 01:06:00,33.3,17.1,30.30,ESE,119,2.7,4.0,51,0.00,,,0.00,VWS V13.01,2013-01-12 09:06:00,
2013-01-12 01:11:00,33.3,16.6,30.30,ESE,119,3.6,5.8,50,0.00,,,0.00,VWS V13.01,2013-01-12 09:11:00,
2013-01-12 01:16:00,33.3,16.6,30.30,ESE,119,4.9,4.9,50,0.00,,,0.00,VWS V13.01,2013-01-12 09:16:00,
2013-01-12 01:21:00,33.1,16.5,30.30,ESE,119,3.6,3.6,50,0.00,,,0.00,VWS V13.01,2013-01-12 09:21:00,
2013-01-12 01:26:00,33.1,16.5,30.30,ESE,119,5.4,5.4,50,0.00,,,0.00,VWS V13.01,2013-01-12 09:26:00,
2013-01-12 01:31:00,33.1,16.5,30.30,ESE,119,8.3,8.3,50,0.00,,,0.00,VWS V13.01,2013-01-12 09:31:00,
2013-01-12 01:36:00,33.1,16.5,30.30,ESE,119,2.7,4.9,50,0.00,,,0.00,VWS V13.01,2013-01-12 09:36:00,
2013-01-12 01:41:00,33.1,16.5,30.30,ESE,119,5.8,5.8,50,0.00,,,0.00,VWS V13.01,2013-01-12 09:41:00,
2013-01-12 01:46:00,33.3,16.2,30.30,ESE,119,5.4,5.4,49,0.00,,,0.00,VWS V13.01,2013-01-12 09:46:00,
2013-01-12 01:51:00,33.3,16.2,30.30,ESE,119,4.0,4.0,49,0.00,,,0.00,VWS V13.01,2013-01-12 09:51:00,
2013-01-12 01:56:00,33.3,15.7,30.30,ESE,119,8.3,8.3,48,0.00,,,0.00,VWS V13.01,2013-01-12 09:56:00,
2013-01-12 02:01:00,33.4,15.4,30.30,ESE,119,4.0,5.8,47,0.00,,,0.00,VWS V13.01,2013-01-12 10:01:00,
2013-01-12 02:06:00,33.4,15.4,30.30,ESE,119,2.7,4.9,47,0.00,,,0.00,VWS V13.01,2013-01-12 10:06:00,
2013-01-12 02:11:00,33.4,15.4,30.30,ESE,119,3.6,3.6,47,0.00,,,0.00,VWS V13.01,2013-01-12 10:11:00,
2013-01-12 02:16:00,33.4,15.4,30.30,ESE,119,3.6,5.8,47,0.00,,,0.00,VWS V13.01,2013-01-12 10:16:00,
2013-01-12 02:21:00,33.4,15.4,30.30,ESE,119,4.0,7.6,47,0.00,,,0.00,VWS V13.01,2013-01-12 10:21:00,
2013-01-12 02:26:00,33.4,15.4,30.30,ESE,119,3.6,5.8,47,0.00,,,0.00,VWS V13.01,2013-01-12 10:26:00,
2013-01-12 02:31:00,33.4,14.9,30.30,ESE,119,4.9,5.4,46,0.00,,,0.00,VWS V13.01,2013-01-12 10:31:00,
2013-01-12 02:36:00,33.6,15.1,30.33,ESE,119,4.0,4.0,46,0.00,,,0.00,VWS V13.01,2013-01-12 10:36:00,
2013-01-12 02:41:00,33.6,15.1,30.33,ESE,119,4.0,5.4,46,0.00,,,0.00,VWS V13.01,2013-01-12 10:41:00,
2013-01-12 02:46:00,33.6,15.1,30.33,ESE,119,3.1,5.8,46,0.00,,,0.00,VWS V13.01,2013-01-12 10:46:00,
2013-01-12 02:51:00,33.6,15.1,30.33,ESE,119,2.2,3.6,46,0.00,,,0.00,VWS V13.01,2013-01-12 10:51:00,
2013-01-12 02:56:00,33.4,14.9,30.33,ESE,119,4.0,6.3,46,0.00,,,0.00,VWS V13.01,2013-01-12 10:56:00,
2013-01-12 03:01:00,33.6,15.1,30.33,ESE,119,2.7,3.1,46,0.00,,,0.00,VWS V13.01,2013-01-12 11:01:00,
2013-01-12 03:06:00,33.6,15.1,30.30,ESE,119,4.0,4.0,46,0.00,,,0.00,VWS V13.01,2013-01-12 11:06:00,
2013-01-12 03:11:00,33.6,15.1,30.30,ESE,119,5.4,5.4,46,0.00,,,0.00,VWS V13.01,2013-01-12 11:11:00,
2013-01-12 03:16:00,33.6,15.1,30.30,ESE,119,3.6,5.4,46,0.00,,,0.00,VWS V13.01,2013-01-12 11:16:00,
2013-01-12 03:21:00,33.4,14.9,30.30,ESE,119,2.7,2.7,46,0.00,,,0.00,VWS V13.01,2013-01-12 11:21:00,
2013-01-12 03:26:00,33.4,14.9,30.30,ESE,119,2.7,4.0,46,0.00,,,0.00,VWS V13.01,2013-01-12 11:26:00,
2013-01-12 03:31:00,33.4,14.9,30.30,ESE,119,2.7,2.7,46,0.00,,,0.00,VWS V13.01,2013-01-12 11:31:00,
2013-01-12 03:36:00,33.4,14.9,30.30,ESE,119,3.6,3.6,46,0.00,,,0.00,VWS V13.01,2013-01-12 11:36:00,
2013-01-12 03:41:00,33.4,14.9,30.30,ESE,119,0.0,3.6,46,0.00,,,0.00,VWS V13.01,2013-01-12 11:41:00,
2013-01-12 03:46:00,33.4,15.4,30.30,ESE,118,0.0,3.6,47,0.00,,,0.00,VWS V13.01,2013-01-12 11:46:00,
2013-01-12 03:51:00,33.4,15.4,30.30,ESE,119,3.1,3.1,47,0.00,,,0.00,VWS V13.01,2013-01-12 11:51:00,
2013-01-12 03:55:00,33.4,15.4,30.30,ESE,119,5.8,5.8,47,0.00,,,0.00,VWS V13.01,2013-01-12 11:55:00,
2013-01-12 04:00:00,33.4,15.4,30.30,ESE,119,4.9,5.8,47,0.00,,,0.00,VWS V13.01,2013-01-12 12:00:00,
2013-01-12 04:05:00,33.4,15.4,30.30,ESE,119,4.0,4.0,47,0.00,,,0.00,VWS V13.01,2013-01-12 12:05:00,
2013-01-12 04:10:00,33.4,15.4,30.30,ESE,119,3.1,3.6,47,0.00,,,0.00,VWS V13.01,2013-01-12 12:10:00,
2013-01-12 04:15:00,33.4,15.4,30.30,ESE,119,4.0,4.9,47,0.00,,,0.00,VWS V13.01,2013-01-12 12:15:00,
2013-01-12 04:20:00,33.4,15.4,30.30,ESE,119,3.1,5.4,47,0.00,,,0.00,VWS V13.01,2013-01-12 12:20:00,
2013-01-12 04:25:00,33.4,15.4,30.30,ESE,119,4.9,4.9,47,0.00,,,0.00,VWS V13.01,2013-01-12 12:25:00,
2013-01-12 04:30:00,33.3,15.2,30.30,ESE,119,3.6,3.6,47,0.00,,,0.00,VWS V13.01,2013-01-12 12:30:00,
2013-01-12 04:35:00,33.4,15.4,30.30,ESE,119,4.9,8.1,47,0.00,,,0.00,VWS V13.01,2013-01-12 12:35:00,
2013-01-12 04:40:00,33.3,15.2,30.30,ESE,119,3.6,4.0,47,0.00,,,0.00,VWS V13.01,2013-01-12 12:40:00,
2013-01-12 04:45:00,33.3,15.2,30.30,ESE,119,2.7,4.0,47,0.00,,,0.00,VWS V13.01,2013-01-12 12:45:00,
2013-01-12 04:50:00,33.3,15.2,30.30,ESE,119,3.1,5.8,47,0.00,,,0.00,VWS V13.01,2013-01-12 12:50:00,
2013-01-12 04:55:00,33.3,15.2,30.30,ESE,119,3.6,5.4,47,0.00,,,0.00,VWS V13.01,2013-01-12 12:55:00,
2013-01-12 05:00:00,33.3,15.2,30.30,ESE,119,8.1,8.1,47,0.00,,,0.00,VWS V13.01,2013-01-12 13:00:00,
2013-01-12 05:05:00,33.3,15.2,30.30,ESE,119,5.8,5.8,47,0.00,,,0.00,VWS V13.01,2013-01-12 13:05:00,
2013-01-12 05:10:00,33.3,15.2,30.30,ESE,119,2.7,4.0,47,0.00,,,0.00,VWS V13.01,2013-01-12 13:10:00,
2013-01-12 05:15:00,33.3,15.2,30.30,ESE,119,4.0,6.3,47,0.00,,,0.00,VWS V13.01,2013-01-12 13:15:00,
2013-01-12 05:20:00,33.3,15.2,30.30,ESE,119,3.6,3.6,47,0.00,,,0.00,VWS V13.01,2013-01-12 13:20:00,
2013-01-12 05:25:00,33.3,15.7,30.30,ESE,119,3.1,5.4,48,0.00,,,0.00,VWS V13.01,2013-01-12 13:25:00,
2013-01-12 05:30:00,33.3,15.7,30.30,ESE,119,4.9,5.4,48,0.00,,,0.00,VWS V13.01,2013-01-12 13:30:00,
2013-01-12 05:35:00,33.3,15.7,30.30,ESE,119,4.0,4.0,48,0.00,,,0.00,VWS V13.01,2013-01-12 13:35:00,
2013-01-12 05:40:00,33.3,15.7,30.30,ESE,119,4.0,6.3,48,0.00,,,0.00,VWS V13.01,2013-01-12 13:40:00,
2013-01-12 05:45:00,33.3,15.7,30.30,ESE,119,5.8,5.8,48,0.00,,,0.00,VWS V13.01,2013-01-12 13:45:00,
2013-01-12 05:50:00,33.3,16.2,30.30,ESE,119,5.8,6.3,49,0.00,,,0.00,VWS V13.01,2013-01-12 13:50:00,
2013-01-12 05:55:00,33.3,16.2,30.30,ESE,119,3.1,5.8,49,0.00,,,0.00,VWS V13.01,2013-01-12 13:55:00,
2013-01-12 06:00:00,33.1,16.0,30.30,ESE,119,5.4,5.4,49,0.00,,,0.00,VWS V13.01,2013-01-12 14:00:00,
2013-01-12 06:05:00,33.1,16.0,30.30,ESE,119,5.4,6.3,49,0.00,,,0.00,VWS V13.01,2013-01-12 14:05:00,
2013-01-12 06:10:00,33.1,16.0,30.30,ESE,118,5.4,8.3,49,0.00,,,0.00,VWS V13.01,2013-01-12 14:10:00,
2013-01-12 06:15:00,33.1,16.0,30.30,ESE,119,3.6,6.3,49,0.00,,,0.00,VWS V13.01,2013-01-12 14:15:00,
2013-01-12 06:20:00,33.1,16.0,30.30,ESE,119,2.7,5.8,49,0.00,,,0.00,VWS V13.01,2013-01-12 14:20:00,
2013-01-12 06:25:00,32.9,15.9,30.30,ESE,119,8.3,8.3,49,0.00,,,0.00,VWS V13.01,2013-01-12 14:25:00,
2013-01-12 06:30:00,32.9,15.9,30.30,ESE,119,6.3,6.3,49,0.00,,,0.00,VWS V13.01,2013-01-12 14:30:00,
2013-01-12 06:35:00,32.7,16.1,30.30,ESE,119,6.3,6.3,50,0.00,,,0.00,VWS V13.01,2013-01-12 14:35:00,
2013-01-12 06:40:00,32.7,16.1,30.30,ESE,119,6.3,6.3,50,0.00,,,0.00,VWS V13.01,2013-01-12 14:40:00,
2013-01-12 06:45:00,32.5,16.4,30.30,ESE,119,6.3,6.3,51,0.00,,,0.00,VWS V13.01,2013-01-12 14:45:00,
2013-01-12 06:50:00,32.5,16.4,30.30,ESE,119,4.5,6.3,51,0.00,,,0.00,VWS V13.01,2013-01-12 14:50:00,
2013-01-12 06:55:00,32.4,16.3,30.30,ESE,119,4.9,5.8,51,0.00,,,0.00,VWS V13.01,2013-01-12 14:55:00,
2013-01-12 07:00:00,32.4,16.3,30.30,ESE,119,3.1,5.4,51,0.00,,,0.00,VWS V13.01,2013-01-12 15:00:00,
2013-01-12 07:05:00,32.2,16.5,30.30,ESE,119,5.4,5.4,52,0.00,,,0.00,VWS V13.01,2013-01-12 15:05:00,
2013-01-12 07:10:00,32.2,16.5,30.30,ESE,119,6.3,6.3,52,0.00,,,0.00,VWS V13.01,2013-01-12 15:10:00,
2013-01-12 07:15:00,32.2,16.5,30.30,ESE,119,10.5,10.5,52,0.00,,,0.00,VWS V13.01,2013-01-12 15:15:00,
2013-01-12 07:20:00,32.2,16.5,30.30,ESE,119,5.4,6.3,52,0.00,,,0.00,VWS V13.01,2013-01-12 15:20:00,
2013-01-12 07:25:00,32.2,16.5,30.30,ESE,119,5.8,6.3,52,0.00,,,0.00,VWS V13.01,2013-01-12 15:25:00,
2013-01-12 07:30:00,32.2,16.5,30.30,ESE,119,8.3,10.1,52,0.00,,,0.00,VWS V13.01,2013-01-12 15:30:00,
2013-01-12 07:35:00,32.2,16.5,30.33,ESE,119,6.3,6.3,52,0.00,,,0.00,VWS V13.01,2013-01-12 15:35:00,
2013-01-12 07:40:00,32.2,17.0,30.33,ESE,119,6.3,8.3,53,0.00,,,0.00,VWS V13.01,2013-01-12 15:40:00,
2013-01-12 07:45:00,32.2,16.5,30.33,ESE,119,6.3,8.1,52,0.00,,,0.00,VWS V13.01,2013-01-12 15:45:00,
2013-01-12 07:50:00,32.2,16.5,30.33,ESE,119,4.9,5.8,52,0.00,,,0.00,VWS V13.01,2013-01-12 15:50:00,
2013-01-12 07:55:00,32.0,16.8,30.33,ESE,119,4.9,6.3,53,0.00,,,0.00,VWS V13.01,2013-01-12 15:55:00,
2013-01-12 08:00:00,32.0,16.8,30.33,ESE,119,5.4,8.1,53,0.00,,,0.00,VWS V13.01,2013-01-12 16:00:00,
2013-01-12 08:05:00,32.0,16.8,30.33,ESE,118,4.0,4.0,53,0.00,,,0.00,VWS V13.01,2013-01-12 16:05:00,
2013-01-12 08:10:00,31.8,17.1,30.33,ESE,119,6.3,6.3,54,0.00,,,0.00,VWS V13.01,2013-01-12 16:10:00,
2013-01-12 08:15:00,31.8,17.1,30.33,ESE,119,4.0,4.0,54,0.00,,,0.00,VWS V13.01,2013-01-12 16:15:00,
2013-01-12 08:20:00,31.8,17.1,30.33,ESE,119,4.0,4.5,54,0.00,,,0.00,VWS V13.01,2013-01-12 16:20:00,
2013-01-12 08:25:00,31.8,17.1,30.33,ESE,119,3.6,3.6,54,0.00,,,0.00,VWS V13.01,2013-01-12 16:25:00,
2013-01-12 08:30:00,32.0,17.7,30.33,ESE,119,2.7,3.1,55,0.00,,,0.00,VWS V13.01,2013-01-12 16:30:00,
2013-01-12 08:35:00,32.2,17.8,30.33,ESE,119,3.6,3.6,55,0.00,,,0.00,VWS V13.01,2013-01-12 16:35:00,
2013-01-12 08:40:00,32.2,17.8,30.33,ESE,119,7.6,7.6,55,0.00,,,0.00,VWS V13.01,2013-01-12 16:40:00,
2013-01-12 08:45:00,32.5,17.8,30.33,ESE,119,4.9,4.9,54,0.00,,,0.00,VWS V13.01,2013-01-12 16:45:00,
2013-01-12 08:50:00,32.7,17.5,30.33,ESE,119,5.8,5.8,53,0.00,,,0.00,VWS V13.01,2013-01-12 16:50:00,
2013-01-12 08:55:00,32.9,17.7,30.33,ESE,119,4.9,4.9,53,0.00,,,0.00,VWS V13.01,2013-01-12 16:55:00,
2013-01-12 09:00:00,33.1,17.4,30.33,ESE,119,5.8,5.8,52,0.00,,,0.00,VWS V13.01,2013-01-12 17:00:00,
2013-01-12 09:05:00,33.4,17.7,30.33,ESE,119,8.7,8.7,52,0.00,,,0.00,VWS V13.01,2013-01-12 17:05:00,
2013-01-12 09:10:00,33.6,17.4,30.33,ESE,119,3.6,5.4,51,0.00,,,0.00,VWS V13.01,2013-01-12 17:10:00,
2013-01-12 09:15:00,33.8,17.1,30.33,ESE,119,6.3,10.1,50,0.00,,,0.00,VWS V13.01,2013-01-12 17:15:00,
2013-01-12 09:20:00,34.0,16.8,30.33,ESE,119,8.7,8.7,49,0.00,,,0.00,VWS V13.01,2013-01-12 17:20:00,
2013-01-12 09:25:00,34.3,16.7,30.33,ESE,119,7.6,7.6,48,0.00,,,0.00,VWS V13.01,2013-01-12 17:25:00,
2013-01-12 09:30:00,34.9,17.2,30.33,ESE,119,3.1,3.1,48,0.00,,,0.00,VWS V13.01,2013-01-12 17:30:00,
2013-01-12 09:35:00,35.1,16.4,30.33,ESE,119,5.4,11.4,46,0.00,,,0.00,VWS V13.01,2013-01-12 17:35:00,
2013-01-12 09:40:00,35.1,15.9,30.33,ESE,119,4.9,5.8,45,0.00,,,0.00,VWS V13.01,2013-01-12 17:40:00,
2013-01-12 09:45:00,35.1,15.9,30.33,ESE,119,8.7,8.7,45,0.00,,,0.00,VWS V13.01,2013-01-12 17:45:00,
2013-01-12 09:50:00,35.2,16.0,30.33,ESE,119,5.4,5.4,45,0.00,,,0.00,VWS V13.01,2013-01-12 17:50:00,
2013-01-12 09:55:00,35.4,16.7,30.33,ESE,119,4.0,5.4,46,0.00,,,0.00,VWS V13.01,2013-01-12 17:55:00,
2013-01-12 10:00:00,35.4,16.2,30.33,ESE,119,3.1,3.1,45,0.00,,,0.00,VWS V13.01,2013-01-12 18:00:00,
2013-01-12 10:05:00,35.2,16.0,30.33,ESE,119,4.9,5.8,45,0.00,,,0.00,VWS V13.01,2013-01-12 18:05:00,
2013-01-12 10:10:00,35.4,16.2,30.33,ESE,119,5.8,5.8,45,0.00,,,0.00,VWS V13.01,2013-01-12 18:10:00,
2013-01-12 10:15:00,35.4,16.2,30.33,ESE,119,7.6,7.6,45,0.00,,,0.00,VWS V13.01,2013-01-12 18:15:00,
2013-01-12 10:20:00,35.4,16.2,30.33,ESE,119,6.3,6.3,45,0.00,,,0.00,VWS V13.01,2013-01-12 18:20:00,
2013-01-12 10:25:00,35.4,16.2,30.36,ESE,119,6.3,8.7,45,0.00,,,0.00,VWS V13.01,2013-01-12 18:25:00,
2013-01-12 10:30:00,35.4,16.7,30.36,ESE,119,6.7,6.7,46,0.00,,,0.00,VWS V13.01,2013-01-12 18:30:00,
2013-01-12 10:35:00,35.6,16.4,30.36,ESE,119,6.3,6.3,45,0.00,,,0.00,VWS V13.01,2013-01-12 18:35:00,
2013-01-12 10:40:00,35.6,16.4,30.33,ESE,119,7.6,7.6,45,0.00,,,0.00,VWS V13.01,2013-01-12 18:40:00,
2013-01-12 10:45:00,35.6,16.4,30.33,ESE,119,8.1,8.1,45,0.00,,,0.00,VWS V13.01,2013-01-12 18:45:00,
2013-01-12 10:50:00,35.8,16.5,30.33,ESE,119,8.3,8.3,45,0.00,,,0.00,VWS V13.01,2013-01-12 18:50:00,
2013-01-12 10:55:00,35.6,15.9,30.33,ESE,119,5.8,8.3,44,0.00,,,0.00,VWS V13.01,2013-01-12 18:55:00,
2013-01-12 11:00:00,36.0,16.7,30.33,ESE,119,4.9,5.4,45,0.00,,,0.00,VWS V13.01,2013-01-12 19:00:00,
2013-01-12 11:05:00,36.1,16.9,30.33,ESE,119,5.8,8.1,45,0.00,,,0.00,VWS V13.01,2013-01-12 19:05:00,
2013-01-12 11:10:00,36.1,16.4,30.33,ESE,119,3.6,8.3,44,0.00,,,0.00,VWS V13.01,2013-01-12 19:10:00,
2013-01-12 11:15:00,36.1,16.9,30.33,ESE,119,3.1,4.9,45,0.00,,,0.00,VWS V13.01,2013-01-12 19:15:00,
2013-01-12 11:20:00,36.3,16.5,30.33,ESE,119,4.0,5.4,44,0.00,,,0.00,VWS V13.01,2013-01-12 19:20:00,
2013-01-12 11:25:00,36.5,16.7,30.33,ESE,119,6.3,6.3,44,0.00,,,0.00,VWS V13.01,2013-01-12 19:25:00,
2013-01-12 11:30:00,36.3,16.0,30.33,ESE,119,4.9,8.3,43,0.00,,,0.00,VWS V13.01,2013-01-12 19:30:00,
2013-01-12 11:35:00,36.9,16.5,30.33,ESE,119,6.3,6.3,43,0.00,,,0.00,VWS V13.01,2013-01-12 19:35:00,
2013-01-12 11:40:00,37.2,16.3,30.33,ESE,119,5.8,5.8,42,0.00,,,0.00,VWS V13.01,2013-01-12 19:40:00,
2013-01-12 11:45:00,37.4,16.4,30.33,ESE,119,4.0,4.0,42,0.00,,,0.00,VWS V13.01,2013-01-12 19:45:00,
2013-01-12 11:50:00,37.6,16.6,30.33,ESE,119,4.9,5.4,42,0.00,,,0.00,VWS V13.01,2013-01-12 19:50:00,
2013-01-12 11:55:00,37.6,16.0,30.33,ESE,119,5.4,6.7,41,0.00,,,0.00,VWS V13.01,2013-01-12 19:55:00,
2013-01-12 12:00:00,37.6,16.0,30.33,ESE,119,5.4,6.3,41,0.00,,,0.00,VWS V13.01,2013-01-12 20:00:00,
2013-01-12 12:05:00,37.6,16.0,30.33,ESE,119,5.4,7.6,41,0.00,,,0.00,VWS V13.01,2013-01-12 20:05:00,
2013-01-12 12:10:00,37.4,15.9,30.33,ESE,119,8.1,8.7,41,0.00,,,0.00,VWS V13.01,2013-01-12 20:10:00,
2013-01-12 12:15:00,37.2,15.7,30.33,ESE,123,8.7,10.1,41,0.00,,,0.00,VWS V13.01,2013-01-12 20:15:00,
2013-01-12 12:20:00,37.4,15.9,30.33,ESE,121,6.3,8.1,41,0.00,,,0.00,VWS V13.01,2013-01-12 20:20:00,
2013-01-12 12:25:00,37.4,15.9,30.33,ESE,123,6.3,7.6,41,0.00,,,0.00,VWS V13.01,2013-01-12 20:25:00,
2013-01-12 12:30:00,37.6,16.0,30.33,ESE,123,7.2,8.3,41,0.00,,,0.00,VWS V13.01,2013-01-12 20:30:00,
2013-01-12 12:35:00,37.6,16.0,30.33,ESE,117,6.3,7.6,41,0.00,,,0.00,VWS V13.01,2013-01-12 20:35:00,
2013-01-12 12:40:00,37.8,16.2,30.33,ESE,117,6.3,8.7,41,0.00,,,0.00,VWS V13.01,2013-01-12 20:40:00,
2013-01-12 12:45:00,38.5,16.8,30.33,ESE,117,10.5,10.5,41,0.00,,,0.00,VWS V13.01,2013-01-12 20:45:00,
2013-01-12 12:50:00,38.5,16.3,30.33,ESE,117,5.8,8.7,40,0.00,,,0.00,VWS V13.01,2013-01-12 20:50:00,
2013-01-12 12:55:00,38.8,16.6,30.30,ESE,117,5.4,8.3,40,0.00,,,0.00,VWS V13.01,2013-01-12 20:55:00,
2013-01-12 13:00:00,39.2,16.9,30.30,ESE,117,5.8,10.1,40,0.00,,,0.00,VWS V13.01,2013-01-12 21:00:00,
2013-01-12 13:05:00,39.4,17.1,30.30,ESE,117,8.3,8.7,40,0.00,,,0.00,VWS V13.01,2013-01-12 21:05:00,
2013-01-12 13:10:00,39.6,16.7,30.30,ESE,117,5.4,6.7,39,0.00,,,0.00,VWS V13.01,2013-01-12 21:10:00,
2013-01-12 13:15:00,40.3,17.3,30.30,ESE,117,10.1,10.1,39,0.00,,,0.00,VWS V13.01,2013-01-12 21:15:00,
2013-01-12 13:20:00,40.6,17.6,30.30,ESE,117,5.4,8.3,39,0.00,,,0.00,VWS V13.01,2013-01-12 21:20:00,
2013-01-12 13:25:00,41.0,18.0,30.30,ESE,117,6.3,7.6,39,0.00,,,0.00,VWS V13.01,2013-01-12 21:25:00,
2013-01-12 13:30:00,41.2,18.1,30.30,ESE,117,5.4,5.4,39,0.00,,,0.00,VWS V13.01,2013-01-12 21:30:00,
2013-01-12 13:35:00,40.8,17.8,30.30,ESE,117,7.6,7.6,39,0.00,,,0.00,VWS V13.01,2013-01-12 21:35:00,
2013-01-12 13:40:00,41.2,18.1,30.30,ESE,117,4.0,5.8,39,0.00,,,0.00,VWS V13.01,2013-01-12 21:40:00,
2013-01-12 13:45:00,41.7,18.6,30.30,ESE,117,5.4,6.3,39,0.00,,,0.00,VWS V13.01,2013-01-12 21:45:00,
2013-01-12 13:50:00,41.5,18.4,30.30,ESE,117,6.3,7.6,39,0.00,,,0.00,VWS V13.01,2013-01-12 21:50:00,
2013-01-12 13:55:00,41.7,18.6,30.30,ESE,117,4.0,8.7,39,0.00,,,0.00,VWS V13.01,2013-01-12 21:55:00,
2013-01-12 14:00:00,42.1,18.9,30.30,ESE,117,7.6,9.2,39,0.00,,,0.00,VWS V13.01,2013-01-12 22:00:00,
2013-01-12 14:05:00,42.1,18.9,30.30,ESE,117,5.8,5.8,39,0.00,,,0.00,VWS V13.01,2013-01-12 22:05:00,
2013-01-12 14:10:00,42.3,19.1,30.33,ESE,117,7.2,8.7,39,0.00,,,0.00,VWS V13.01,2013-01-12 22:10:00,
2013-01-12 14:15:00,42.4,19.2,30.33,ESE,117,5.4,5.8,39,0.00,,,0.00,VWS V13.01,2013-01-12 22:15:00,
2013-01-12 14:20:00,42.3,19.1,30.33,ESE,117,6.3,7.2,39,0.00,,,0.00,VWS V13.01,2013-01-12 22:20:00,
2013-01-12 14:25:00,42.4,19.2,30.33,ESE,117,3.6,4.0,39,0.00,,,0.00,VWS V13.01,2013-01-12 22:25:00,
2013-01-12 14:30:00,42.4,19.2,30.33,ESE,117,5.4,8.7,39,0.00,,,0.00,VWS V13.01,2013-01-12 22:30:00,
2013-01-12 14:35:00,42.3,19.1,30.33,ESE,117,6.3,6.3,39,0.00,,,0.00,VWS V13.01,2013-01-12 22:35:00,
2013-01-12 14:40:00,42.1,18.9,30.33,ESE,118,8.1,8.7,39,0.00,,,0.00,VWS V13.01,2013-01-12 22:40:00,
2013-01-12 14:45:00,42.1,18.9,30.33,ESE,118,5.8,8.7,39,0.00,,,0.00,VWS V13.01,2013-01-12 22:45:00,
2013-01-12 14:50:00,42.4,19.2,30.33,ESE,118,6.3,6.3,39,0.00,,,0.00,VWS V13.01,2013-01-12 22:50:00,
2013-01-12 14:55:00,42.6,19.4,30.33,ESE,118,3.6,5.8,39,0.00,,,0.00,VWS V13.01,2013-01-12 22:55:00,
2013-01-12 15:00:00,42.3,19.1,30.33,ESE,118,4.9,6.3,39,0.00,,,0.00,VWS V13.01,2013-01-12 23:00:00,
2013-01-12 15:05:00,42.4,19.2,30.33,ESE,118,5.8,5.8,39,0.00,,,0.00,VWS V13.01,2013-01-12 23:05:00,
2013-01-12 15:10:00,42.1,18.9,30.33,ESE,118,5.8,8.3,39,0.00,,,0.00,VWS V13.01,2013-01-12 23:10:00,
2013-01-12 15:15:00,42.3,19.1,30.33,ESE,118,7.6,7.6,39,0.00,,,0.00,VWS V13.01,2013-01-12 23:15:00,
2013-01-12 15:20:00,42.1,18.9,30.33,ESE,118,8.1,8.3,39,0.00,,,0.00,VWS V13.01,2013-01-12 23:20:00,
2013-01-12 15:25:00,42.1,18.9,30.33,ESE,118,2.7,3.6,39,0.00,,,0.00,VWS V13.01,2013-01-12 23:25:00,
2013-01-12 15:30:00,42.1,18.9,30.33,ESE,118,2.7,3.1,39,0.00,,,0.00,VWS V13.01,2013-01-12 23:30:00,
2013-01-12 15:35:00,41.9,18.8,30.33,ESE,118,7.6,7.6,39,0.00,,,0.00,VWS V13.01,2013-01-12 23:35:00,
2013-01-12 15:40:00,42.1,18.9,30.33,ESE,118,5.4,5.4,39,0.00,,,0.00,VWS V13.01,2013-01-12 23:40:00,
2013-01-12 15:45:00,42.1,18.9,30.33,ESE,118,4.9,5.4,39,0.00,,,0.00,VWS V13.01,2013-01-12 23:45:00,
2013-01-12 15:50:00,41.7,18.6,30.33,ESE,118,4.0,4.9,39,0.00,,,0.00,VWS V13.01,2013-01-12 23:50:00,
2013-01-12 15:55:00,41.5,18.4,30.33,ESE,118,8.7,8.7,39,0.00,,,0.00,VWS V13.01,2013-01-12 23:55:00,
2013-01-12 16:00:00,41.4,18.3,30.33,ESE,118,6.3,6.3,39,0.00,,,0.00,VWS V13.01,2013-01-13 00:00:00,
2013-01-12 16:05:00,41.2,18.1,30.33,ESE,118,4.5,4.5,39,0.00,,,0.00,VWS V13.01,2013-01-13 00:05:00,
2013-01-12 16:10:00,40.8,17.8,30.33,ESE,118,4.0,4.9,39,0.00,,,0.00,VWS V13.01,2013-01-13 00:10:00,
2013-01-12 16:15:00,41.0,18.0,30.33,ESE,118,5.4,6.3,39,0.00,,,0.00,VWS V13.01,2013-01-13 00:15:00,
2013-01-12 16:20:00,40.8,17.8,30.33,ESE,118,3.6,5.8,39,0.00,,,0.00,VWS V13.01,2013-01-13 00:20:00,
2013-01-12 16:25:00,40.6,17.6,30.33,ESE,118,0.0,0.0,39,0.00,,,0.00,VWS V13.01,2013-01-13 00:25:00,
2013-01-12 16:30:00,40.3,17.3,30.33,ESE,118,3.6,4.0,39,0.00,,,0.00,VWS V13.01,2013-01-13 00:30:00,
2013-01-12 16:35:00,39.9,17.0,30.33,ESE,118,0.0,3.1,39,0.00,,,0.00,VWS V13.01,2013-01-13 00:35:00,
2013-01-12 16:40:00,39.4,16.5,30.36,ESE,118,5.8,5.8,39,0.00,,,0.00,VWS V13.01,2013-01-13 00:40:00,
2013-01-12 16:45:00,38.8,16.6,30.36,ESE,118,2.7,5.4,40,0.00,,,0.00,VWS V13.01,2013-01-13 00:45:00,
2013-01-12 16:50:00,38.3,16.1,30.36,ESE,118,4.0,4.5,40,0.00,,,0.00,VWS V13.01,2013-01-13 00:50:00,
2013-01-12 16:55:00,37.9,15.8,30.36,ESE,118,4.0,5.4,40,0.00,,,0.00,VWS V13.01,2013-01-13 00:55:00,
2013-01-12 17:00:00,37.8,16.2,30.36,ESE,118,4.0,4.0,41,0.00,,,0.00,VWS V13.01,2013-01-13 01:00:00,
2013-01-12 17:05:00,37.4,15.9,30.36,ESE,118,4.0,4.0,41,0.00,,,0.00,VWS V13.01,2013-01-13 01:05:00,
2013-01-12 17:10:00,37.0,15.5,30.36,ESE,118,5.4,5.8,41,0.00,,,0.00,VWS V13.01,2013-01-13 01:10:00,
2013-01-12 17:15:00,36.7,15.2,30.36,ESE,118,5.4,5.8,41,0.00,,,0.00,VWS V13.01,2013-01-13 01:15:00,
2013-01-12 17:20:00,36.5,15.6,30.36,ESE,118,3.6,5.4,42,0.00,,,0.00,VWS V13.01,2013-01-13 01:20:00,
2013-01-12 17:25:00,36.1,15.8,30.36,ESE,118,3.6,3.6,43,0.00,,,0.00,VWS V13.01,2013-01-13 01:25:00,
2013-01-12 17:30:00,35.8,15.5,30.36,ESE,118,5.8,7.6,43,0.00,,,0.00,VWS V13.01,2013-01-13 01:30:00,
2013-01-12 17:35:00,35.8,16.0,30.36,ESE,118,6.3,8.1,44,0.00,,,0.00,VWS V13.01,2013-01-13 01:35:00,
2013-01-12 17:40:00,35.6,15.9,30.36,ESE,118,3.6,4.9,44,0.00,,,0.00,VWS V13.01,2013-01-13 01:40:00,
2013-01-12 17:45:00,35.4,16.2,30.36,ESE,118,0.0,3.1,45,0.00,,,0.00,VWS V13.01,2013-01-13 01:45:00,
2013-01-12 17:50:00,35.1,16.4,30.36,ESE,118,2.7,3.6,46,0.00,,,0.00,VWS V13.01,2013-01-13 01:50:00,
2013-01-12 17:55:00,34.9,16.2,30.36,ESE,118,2.7,4.0,46,0.00,,,0.00,VWS V13.01,2013-01-13 01:55:00,
2013-01-12 18:00:00,34.7,16.0,30.36,ESE,118,2.2,3.1,46,0.00,,,0.00,VWS V13.01,2013-01-13 02:00:00,
2013-01-12 18:05:00,34.5,16.4,30.36,ESE,118,3.6,3.6,47,0.00,,,0.00,VWS V13.01,2013-01-13 02:05:00,
2013-01-12 18:10:00,34.2,16.5,30.36,ESE,118,2.2,3.1,48,0.00,,,0.00,VWS V13.01,2013-01-13 02:10:00,
2013-01-12 18:15:00,33.8,16.7,30.36,ESE,118,2.7,2.7,49,0.00,,,0.00,VWS V13.01,2013-01-13 02:15:00,
2013-01-12 18:20:00,33.6,17.0,30.36,ESE,118,2.2,2.7,50,0.00,,,0.00,VWS V13.01,2013-01-13 02:20:00,
2013-01-12 18:25:00,33.4,17.3,30.36,ESE,118,2.2,2.2,51,0.00,,,0.00,VWS V13.01,2013-01-13 02:25:00,
2013-01-12 18:30:00,33.3,17.1,30.36,ESE,118,2.2,2.7,51,0.00,,,0.00,VWS V13.01,2013-01-13 02:30:00,
2013-01-12 18:35:00,33.1,16.9,30.36,ESE,118,0.0,0.0,51,0.00,,,0.00,VWS V13.01,2013-01-13 02:35:00,
2013-01-12 18:40:00,32.9,17.2,30.36,ESE,118,2.7,2.7,52,0.00,,,0.00,VWS V13.01,2013-01-13 02:40:00,
2013-01-12 18:45:00,32.9,17.7,30.36,ESE,118,3.6,3.6,53,0.00,,,0.00,VWS V13.01,2013-01-13 02:45:00,
2013-01-12 18:50:00,32.7,18.4,30.36,ESE,118,2.7,5.8,55,0.00,,,0.00,VWS V13.01,2013-01-13 02:50:00,
2013-01-12 18:55:00,32.7,19.2,30.36,ESE,118,3.6,5.4,57,0.00,,,0.00,VWS V13.01,2013-01-13 02:55:00,
2013-01-12 19:00:00,32.5,19.0,30.36,ESE,118,4.0,4.0,57,0.00,,,0.00,VWS V13.01,2013-01-13 03:00:00,
2013-01-12 19:05:00,32.5,19.0,30.36,ESE,118,3.6,4.9,57,0.00,,,0.00,VWS V13.01,2013-01-13 03:05:00,
2013-01-12 19:10:00,32.5,19.0,30.36,ESE,118,4.9,4.9,57,0.00,,,0.00,VWS V13.01,2013-01-13 03:10:00,
2013-01-12 19:15:00,32.4,19.2,30.36,ESE,118,5.4,5.4,58,0.00,,,0.00,VWS V13.01,2013-01-13 03:15:00,
2013-01-12 19:20:00,32.2,19.1,30.36,ESE,118,2.7,5.4,58,0.00,,,0.00,VWS V13.01,2013-01-13 03:20:00,
2013-01-12 19:25:00,32.0,18.9,30.36,ESE,118,3.6,3.6,58,0.00,,,0.00,VWS V13.01,2013-01-13 03:25:00,
2013-01-12 19:30:00,31.8,18.7,30.36,ESE,118,3.1,3.1,58,0.00,,,0.00,VWS V13.01,2013-01-13 03:30:00,
2013-01-12 19:35:00,31.6,18.6,30.36,ESE,118,0.0,0.0,58,0.00,,,0.00,VWS V13.01,2013-01-13 03:35:00,
2013-01-12 19:40:00,31.3,18.2,30.36,ESE,118,0.0,0.0,58,0.00,,,0.00,VWS V13.01,2013-01-13 03:40:00,
2013-01-12 19:45:00,31.1,18.1,30.36,ESE,118,0.0,0.0,58,0.00,,,0.00,VWS V13.01,2013-01-13 03:45:00,
2013-01-12 19:50:00,31.1,18.1,30.36,ESE,118,2.2,2.7,58,0.00,,,0.00,VWS V13.01,2013-01-13 03:50:00,
2013-01-12 19:55:00,30.7,17.7,30.36,ESE,118,0.0,0.0,58,0.00,,,0.00,VWS V13.01,2013-01-13 03:55:00,
2013-01-12 20:00:00,30.6,17.6,30.36,ESE,118,0.0,0.0,58,0.00,,,0.00,VWS V13.01,2013-01-13 04:00:00,
2013-01-12 20:05:00,30.6,18.0,30.36,ESE,118,0.0,3.6,59,0.00,,,0.00,VWS V13.01,2013-01-13 04:05:00,
2013-01-12 20:10:00,30.7,18.5,30.39,ESE,118,3.1,3.1,60,0.00,,,0.00,VWS V13.01,2013-01-13 04:10:00,
2013-01-12 20:15:00,30.9,19.5,30.39,ESE,118,0.0,3.6,62,0.00,,,0.00,VWS V13.01,2013-01-13 04:15:00,
2013-01-12 20:20:00,30.7,19.3,30.36,ESE,118,2.7,3.1,62,0.00,,,0.00,VWS V13.01,2013-01-13 04:20:00,
2013-01-12 20:25:00,30.4,18.6,30.36,ESE,118,0.0,0.0,61,0.00,,,0.00,VWS V13.01,2013-01-13 04:25:00,
2013-01-12 20:30:00,30.2,18.8,30.36,ESE,118,0.0,0.0,62,0.00,,,0.00,VWS V13.01,2013-01-13 04:30:00,
2013-01-12 20:35:00,30.4,19.7,30.36,ESE,118,2.7,3.1,64,0.00,,,0.00,VWS V13.01,2013-01-13 04:35:00,
2013-01-12 20:40:00,30.6,20.6,30.36,ESE,118,2.7,4.0,66,0.00,,,0.00,VWS V13.01,2013-01-13 04:40:00,
2013-01-12 20:45:00,30.7,21.1,30.36,ESE,118,0.0,0.0,67,0.00,,,0.00,VWS V13.01,2013-01-13 04:45:00,
2013-01-12 20:50:00,30.9,22.0,30.36,ESE,118,5.4,5.4,69,0.00,,,0.00,VWS V13.01,2013-01-13 04:50:00,
2013-01-12 20:55:00,30.9,22.3,30.39,ESE,118,5.4,5.4,70,0.00,,,0.00,VWS V13.01,2013-01-13 04:55:00,
2013-01-12 21:01:00,30.9,22.6,30.39,ESE,118,5.4,5.4,71,0.00,,,0.00,VWS V13.01,2013-01-13 05:01:00,
2013-01-12 21:03:00,30.9,22.6,30.39,ESE,118,5.8,5.8,71,0.00,,,0.00,VWS V13.01,2013-01-13 05:03:00,
2013-01-12 21:08:00,30.9,23.0,30.39,ESE,118,3.6,4.9,72,0.00,,,0.00,VWS V13.01,2013-01-13 05:08:00,
2013-01-12 21:13:00,30.7,22.8,30.39,ESE,118,3.1,3.1,72,0.00,,,0.00,VWS V13.01,2013-01-13 05:13:00,
2013-01-12 21:18:00,30.7,22.8,30.39,ESE,118,3.6,5.4,72,0.00,,,0.00,VWS V13.01,2013-01-13 05:18:00,
2013-01-12 21:23:00,30.6,22.6,30.39,ESE,118,4.0,4.0,72,0.00,,,0.00,VWS V13.01,2013-01-13 05:23:00,
2013-01-12 21:28:00,30.6,23.0,30.39,ESE,118,5.4,5.4,73,0.00,,,0.00,VWS V13.01,2013-01-13 05:28:00,
2013-01-12 21:33:00,30.6,23.0,30.39,ESE,118,3.6,4.0,73,0.00,,,0.00,VWS V13.01,2013-01-13 05:33:00,
2013-01-12 21:38:00,30.2,22.6,30.39,ESE,118,0.0,0.0,73,0.00,,,0.00,VWS V13.01,2013-01-13 05:38:00,
2013-01-12 21:43:00,30.0,22.1,30.39,ESE,118,0.0,0.0,72,0.00,,,0.00,VWS V13.01,2013-01-13 05:43:00,
2013-01-12 21:48:00,30.0,22.4,30.39,ESE,118,0.0,3.6,73,0.00,,,0.00,VWS V13.01,2013-01-13 05:48:00,
2013-01-12 21:53:00,30.0,22.4,30.39,ESE,118,0.0,0.0,73,0.00,,,0.00,VWS V13.01,2013-01-13 05:53:00,
2013-01-12 21:58:00,29.8,22.2,30.39,ESE,118,0.0,2.2,73,0.00,,,0.00,VWS V13.01,2013-01-13 05:58:00,
2013-01-12 22:03:00,29.7,22.1,30.39,ESE,118,0.0,0.0,73,0.00,,,0.00,VWS V13.01,2013-01-13 06:03:00,
2013-01-12 22:08:00,29.7,22.1,30.39,ESE,118,3.1,3.6,73,0.00,,,0.00,VWS V13.01,2013-01-13 06:08:00,
2013-01-12 22:13:00,29.7,22.1,30.39,ESE,118,0.0,0.0,73,0.00,,,0.00,VWS V13.01,2013-01-13 06:13:00,
2013-01-12 22:18:00,29.7,22.1,30.39,ESE,118,3.1,3.1,73,0.00,,,0.00,VWS V13.01,2013-01-13 06:18:00,
2013-01-12 22:23:00,29.8,22.6,30.39,ESE,118,3.1,4.0,74,0.00,,,0.00,VWS V13.01,2013-01-13 06:23:00,
2013-01-12 22:28:00,30.0,23.1,30.39,ESE,118,4.0,5.4,75,0.00,,,0.00,VWS V13.01,2013-01-13 06:28:00,
2013-01-12 22:33:00,30.0,23.1,30.39,ESE,118,4.5,5.8,75,0.00,,,0.00,VWS V13.01,2013-01-13 06:33:00,
2013-01-12 22:38:00,30.0,23.1,30.39,ESE,118,0.0,2.2,75,0.00,,,0.00,VWS V13.01,2013-01-13 06:38:00,
2013-01-12 22:43:00,29.8,22.9,30.39,ESE,118,0.0,2.7,75,0.00,,,0.00,VWS V13.01,2013-01-13 06:43:00,
2013-01-12 22:48:00,29.8,23.2,30.39,ESE,118,2.2,3.1,76,0.00,,,0.00,VWS V13.01,2013-01-13 06:48:00,
2013-01-12 22:53:00,29.7,23.0,30.39,ESE,118,0.0,0.0,76,0.00,,,0.00,VWS V13.01,2013-01-13 06:53:00,
2013-01-12 22:58:00,29.7,23.0,30.39,ESE,118,0.0,0.0,76,0.00,,,0.00,VWS V13.01,2013-01-13 06:58:00,
2013-01-12 23:03:00,29.7,23.4,30.39,ESE,118,4.9,4.9,77,0.00,,,0.00,VWS V13.01,2013-01-13 07:03:00,
2013-01-12 23:08:00,29.8,23.8,30.39,ESE,118,3.1,3.1,78,0.00,,,0.00,VWS V13.01,2013-01-13 07:08:00,
2013-01-12 23:13:00,29.8,24.1,30.39,ESE,118,0.0,0.0,79,0.00,,,0.00,VWS V13.01,2013-01-13 07:13:00,
2013-01-12 23:18:00,30.0,24.3,30.39,ESE,118,3.6,4.0,79,0.00,,,0.00,VWS V13.01,2013-01-13 07:18:00,
2013-01-12 23:23:00,29.8,24.1,30.39,ESE,118,2.7,2.7,79,0.00,,,0.00,VWS V13.01,2013-01-13 07:23:00,
2013-01-12 23:28:00,29.8,24.1,30.39,ESE,118,4.9,4.9,79,0.00,,,0.00,VWS V13.01,2013-01-13 07:28:00,
2013-01-12 23:33:00,30.0,24.3,30.39,ESE,118,2.2,3.1,79,0.00,,,0.00,VWS V13.01,2013-01-13 07:33:00,
2013-01-12 23:38:00,30.0,24.3,30.39,ESE,118,2.2,4.0,79,0.00,,,0.00,VWS V13.01,2013-01-13 07:38:00,
2013-01-12 23:43:00,30.0,24.0,30.39,ESE,118,2.2,2.2,78,0.00,,,0.00,VWS V13.01,2013-01-13 07:43:00,
2013-01-12 23:48:00,30.0,23.7,30.39,ESE,118,0.0,2.7,77,0.00,,,0.00,VWS V13.01,2013-01-13 07:48:00,
2013-01-12 23:53:00,30.0,23.4,30.39,ESE,118,5.4,5.4,76,0.00,,,0.00,VWS V13.01,2013-01-13 07:53:00,
2013-01-12 23:58:00,30.2,22.6,30.39,ESE,118,2.7,8.1,73,0.00,,,0.00,VWS V13.01,2013-01-13 07:58:00,